Theta_e
303 298 294 294 296 299 300 305 307 309 318 318 319 317 315 316 317 321 321 323 328 323 321 321 320 321 323 325 327 328 329 324 323 321 320 320 320 319 320 324 326 327 329 332 335 337 339 341 342 343 343 344 344 344 344 344 344 345 345 347 347 348 349 348 346 345 345 343 342 343 343 343 345 345 347 351 351 352 354 357 358 359 360 359 362 361
303 296 294 297 300 301 301 300 301 300 317 317 316 315 312 315 314 320 318 323 327 321 318 323 320 321 322 323 325 327 329 322 321 320 320 319 320 319 320 323 325 327 329 332 334 336 338 339 341 341 342 345 341 342 343 343 344 345 347 347 348 349 349 348 347 347 346 345 343 342 342 345 346 348 348 348 350 353 356 356 357 359 359 359 359 362
293 292 297 299 301 302 302 301 303 308 316 317 314 313 314 316 320 322 322 324 323 323 317 321 318 318 321 324 326 326 328 328 329 322 321 320 319 319 320 322 324 323 326 331 333 336 337 338 339 340 341 342 342 341 342 343 344 345 346 348 350 350 349 348 349 349 348 349 348 346 347 348 348 351 350 350 353 356 355 357 357 358 358 358 359 362
290 291 297 300 301 300 300 301 301 317 317 314 313 311 311 317 315 311 319 321 321 321 317 319 318 318 322 325 325 327 329 329 329 330 327 322 320 319 320 322 322 322 327 330 332 334 336 337 338 339 339 340 341 342 342 343 344 346 347 349 350 350 350 351 355 354 351 352 351 351 351 351 350 349 356 353 354 355 355 356 357 357 358 359 359 361
292 296 299 299 298 298 298 300 314 313 311 315 315 312 312 314 316 316 316 320 322 322 324 320 316 315 318 317 320 325 330 328 328 329 330 326 322 323 323 323 323 323 328 330 332 333 335 336 337 338 339 339 340 341 342 343 345 346 347 349 350 350 350 353 360 353 354 355 352 354 354 354 350 350 349 349 350 352 355 356 355 356 358 359 359 361
293 298 299 297 297 297 298 298 312 313 309 312 316 316 317 319 317 317 319 317 314 312 319 318 306 308 316 317 318 322 326 324 326 325 326 323 321 321 321 322 322 326 331 331 331 333 335 336 337 337 338 339 340 341 343 345 346 347 348 350 350 350 350 355 353 354 354 353 349 348 346 343 343 342 343 345 347 349 353 355 356 356 359 360 358 359
296 300 298 297 296 296 297 296 305 315 310 309 311 319 320 319 317 317 316 315 308 306 314 320 307 303 314 314 317 321 323 323 324 323 325 325 321 320 321 322 321 325 329 331 333 334 334 335 336 336 337 339 339 342 345 346 347 348 349 349 350 349 351 354 353 353 353 349 348 347 345 344 343 342 342 344 349 351 354 356 355 355 358 359 359 359
297 295 295 295 295 295 294 293 300 316 311 307 313 322 321 318 316 316 316 313 311 317 318 318 316 305 305 312 318 322 321 322 322 322 323 326 325 320 321 322 321 325 329 330 331 333 335 335 336 336 338 339 341 343 345 346 347 348 349 349 349 350 353 353 353 352 351 348 347 346 346 347 344 343 343 346 348 352 356 353 355 355 356 358 358 358
298 299 295 293 293 292 292 297 303 317 309 309 322 323 320 319 319 319 315 311 314 311 306 312 318 306 305 313 320 321 317 319 320 321 322 323 326 325 321 322 322 325 330 331 331 333 334 335 336 338 338 340 342 343 344 346 347 348 349 350 350 350 353 352 353 351 349 350 347 347 346 347 347 346 346 351 355 353 356 352 352 352 353 355 357 358
300 300 299 296 293 291 294 298 316 322 316 321 322 322 320 319 318 318 315 313 311 307 303 309 314 304 304 313 313 319 317 316 319 321 321 322 325 327 324 321 322 325 330 332 332 334 334 336 337 338 339 340 342 344 346 346 348 348 349 349 350 351 352 352 352 352 350 349 350 346 347 347 347 351 351 352 351 350 352 351 351 351 351 354 356 357
302 309 308 301 295 296 297 306 321 322 323 324 320 315 314 313 312 313 312 312 308 302 305 310 314 312 299 309 312 312 314 319 321 322 323 323 325 327 328 322 322 323 329 331 332 334 335 337 338 338 338 340 342 344 345 346 347 348 348 349 349 351 352 352 352 351 350 351 348 347 348 347 347 350 351 349 348 348 350 350 350 350 352 354 356 357
298 300 302 303 307 306 318 320 325 325 323 320 314 311 309 305 309 306 304 308 300 298 308 312 311 313 299 306 314 320 323 322 322 321 322 322 324 327 328 330 324 323 327 331 332 333 334 335 336 338 337 339 341 343 344 345 346 347 348 349 349 351 352 352 353 352 352 352 349 348 349 348 349 351 351 348 348 348 349 350 350 351 352 353 356 356
293 294 296 299 317 319 319 317 317 320 319 316 313 307 300 294 296 294 298 295 296 297 308 314 314 308 304 310 321 323 321 323 325 325 324 324 325 327 328 330 327 324 325 329 331 332 333 334 335 336 337 338 340 341 343 345 346 347 347 348 348 350 352 352 353 352 353 352 351 350 350 350 352 351 350 349 348 349 350 350 350 351 351 351 352 353
291 294 297 300 308 322 321 312 309 309 313 312 307 302 296 290 288 288 292 297 296 305 314 312 317 305 313 316 319 323 325 325 327 327 327 326 325 327 329 330 331 324 324 327 331 332 333 334 335 336 337 338 339 341 342 345 346 346 347 348 348 349 353 353 353 353 353 353 352 351 351 352 354 351 351 350 349 350 350 351 351 352 352 352 353 353
285 289 295 298 296 303 316 317 316 313 313 311 311 305 301 297 292 287 292 291 294 299 307 315 307 303 304 309 328 324 326 328 329 329 329 327 327 329 330 330 331 327 323 325 329 332 333 334 336 336 337 338 339 340 341 344 345 346 347 348 348 348 352 353 353 353 353 352 352 352 351 353 354 352 352 351 353 352 351 352 352 353 353 353 353 353
293 290 295 300 302 303 313 320 320 316 311 309 309 307 302 299 301 294 297 297 299 302 303 306 305 312 310 324 330 332 328 328 330 330 329 327 328 329 329 329 330 330 325 325 327 331 333 335 336 337 338 338 339 340 341 343 345 346 347 348 348 348 351 353 354 354 354 352 353 353 350 353 355 356 354 354 358 355 354 354 353 353 353 352 352 353
291 288 297 301 304 300 307 318 316 319 303 305 307 301 302 309 309 302 304 307 306 302 299 309 308 312 322 325 325 327 325 325 327 329 329 328 328 328 328 329 330 331 329 325 326 329 331 334 336 337 338 338 340 340 341 343 345 346 347 348 348 348 351 352 354 354 354 353 353 353 351 353 354 354 353 353 355 357 356 355 355 354 355 354 352 353
292 291 296 298 299 303 304 313 317 317 308 304 301 303 307 311 310 303 294 296 296 292 298 306 305 307 306 302 324 322 319 322 325 326 327 328 328 328 329 329 330 330 331 328 326 328 330 333 336 337 339 339 339 340 341 343 345 346 348 348 348 348 349 352 353 354 354 353 354 354 352 353 355 355 355 354 355 357 356 354 355 355 355 355 355 355
295 289 292 297 300 303 305 307 310 317 307 310 308 307 304 297 298 302 301 292 293 292 295 301 307 306 307 307 317 319 317 317 322 325 325 325 327 328 329 330 330 331 331 330 327 327 328 331 335 336 338 339 340 341 343 344 346 347 348 349 349 349 350 352 353 354 355 355 355 355 354 354 355 355 355 355 355 356 356 355 354 355 356 356 356 357
296 292 291 296 300 301 299 298 294 294 301 300 304 304 306 302 298 299 299 300 298 293 294 296 303 298 309 310 317 319 320 318 320 323 324 326 326 328 330 330 330 330 330 331 328 328 328 329 333 336 337 338 339 340 343 345 346 346 348 349 349 351 351 352 352 353 353 355 356 355 355 354 355 355 354 353 354 354 355 354 354 354 355 355 356 356
295 295 289 295 300 299 295 297 296 295 294 292 298 296 301 301 305 305 306 299 294 293 293 294 294 300 306 317 319 321 322 321 321 323 325 326 327 329 330 330 330 330 330 332 330 329 329 328 331 335 336 338 339 342 344 345 346 347 348 348 350 350 350 350 352 352 352 355 355 355 353 354 354 354 355 354 353 353 353 353 356 354 355 355 352 354
295 293 292 293 295 293 295 299 301 300 297 296 293 296 296 301 298 295 292 301 302 295 291 294 294 301 310 324 321 323 325 323 324 325 325 327 330 330 331 333 332 331 332 333 333 331 330 329 330 333 335 337 338 341 343 346 346 347 347 348 349 351 350 350 351 351 351 354 355 353 353 354 354 354 354 354 353 353 352 352 353 354 354 354 353 352
299 296 294 290 293 296 298 301 302 304 301 300 302 301 301 299 298 292 289 294 302 304 305 301 297 299 315 326 322 322 325 326 327 328 327 328 329 331 333 334 334 334 334 335 336 335 336 337 338 334 333 335 336 340 343 345 346 347 348 348 349 350 350 351 351 352 351 352 353 353 353 353 354 354 353 353 353 352 353 352 352 353 352 353 353 352
317 295 292 294 295 298 301 304 303 306 305 302 301 301 306 304 304 296 294 297 300 302 298 298 296 300 315 325 325 325 325 327 328 328 328 328 329 330 332 333 335 335 334 335 335 337 337 339 339 338 337 337 336 339 342 345 346 347 348 348 349 350 350 351 351 352 351 351 352 353 352 352 353 354 353 352 352 352 352 352 352 353 352 352 353 352
294 294 292 288 288 292 296 300 300 304 303 298 298 300 308 311 310 303 301 301 299 301 299 296 292 298 314 326 325 327 327 327 327 330 329 328 328 329 331 334 335 335 334 334 335 336 337 337 338 337 337 337 338 339 340 344 346 346 348 349 348 350 351 352 352 352 351 351 351 351 351 351 352 353 352 352 351 351 352 351 351 351 351 350 350 351
297 297 292 288 285 284 285 286 289 294 297 299 302 308 312 312 310 301 296 297 292 299 301 296 296 305 319 323 323 324 324 325 329 330 332 330 330 330 332 333 334 334 333 333 334 335 335 336 337 338 338 339 340 339 338 340 343 346 348 349 350 349 350 351 352 352 351 350 350 349 350 351 351 351 352 352 351 350 351 351 350 349 350 350 349 349
298 300 295 292 290 288 291 296 301 303 298 301 307 309 310 313 313 298 294 295 292 294 299 299 301 309 313 318 320 321 322 323 325 328 329 330 331 331 331 333 334 334 334 333 334 335 336 336 336 338 339 340 339 340 340 340 339 339 341 342 344 345 347 347 349 350 350 350 350 349 349 350 350 351 351 352 351 350 350 350 350 349 348 349 348 347
295 292 300 298 297 296 297 299 303 309 305 305 307 308 310 311 311 308 297 293 301 297 293 301 308 308 311 317 319 320 322 324 326 328 329 330 329 330 332 333 336 334 334 334 334 333 334 335 336 337 339 340 339 340 342 342 343 343 345 345 346 347 347 346 346 345 346 347 348 348 349 349 350 350 350 350 350 349 348 348 347 346 345 347 345 345
293 292 297 300 300 302 302 304 307 308 308 308 308 308 308 310 310 308 306 308 307 295 295 303 311 311 314 317 320 321 322 324 326 328 330 332 333 333 332 332 331 332 333 334 333 333 334 335 336 337 339 339 339 340 341 343 344 345 346 346 346 347 347 346 346 345 343 342 342 340 341 343 346 346 348 350 348 348 347 347 346 346 349 351 350 350
293 291 298 299 299 302 303 305 307 307 306 306 305 306 308 309 309 310 311 313 309 307 311 314 315 315 319 320 322 323 326 326 328 331 331 331 332 333 333 332 332 333 334 334 333 333 333 335 336 337 339 339 338 339 340 341 343 344 344 344 346 346 347 346 345 343 341 342 342 341 341 341 344 344 344 346 347 347 346 345 346 350 352 352 353 353
293 293 306 297 294 299 302 304 306 306 304 302 304 305 307 309 309 310 312 313 316 315 317 316 316 315 321 324 323 326 328 329 330 329 329 330 332 332 332 333 333 334 335 335 335 335 335 336 337 338 338 338 338 339 339 341 342 343 343 343 343 344 345 346 344 343 342 342 343 344 343 344 343 343 343 342 342 343 347 347 347 350 350 351 351 350
296 291 296 293 290 294 299 301 302 304 304 302 301 303 305 307 306 308 308 313 313 311 315 316 313 314 321 325 325 326 326 326 326 327 328 329 331 331 331 331 331 333 334 335 336 337 336 337 337 337 337 336 337 338 339 339 341 342 342 343 342 344 345 345 344 343 343 343 343 343 341 342 343 341 342 344 343 342 343 346 348 348 347 349 349 348
293 291 292 291 287 290 296 301 302 302 299 295 296 301 306 307 309 311 313 314 313 315 313 310 311 319 323 325 322 323 324 324 323 324 325 327 329 330 330 331 332 333 334 335 336 337 337 336 335 335 336 337 337 338 339 339 339 340 341 341 343 344 343 343 343 342 341 341 342 343 341 341 342 342 341 342 343 343 344 345 346 345 345 346 350 347
299 293 292 292 288 288 294 297 299 293 287 288 303 311 311 308 308 308 309 311 313 315 312 315 316 319 322 322 321 320 320 321 322 324 327 327 328 330 332 333 333 332 331 331 332 332 333 332 332 333 334 334 336 339 340 341 340 341 342 342 342 341 340 341 341 342 342 343 343 343 342 341 342 342 341 342 342 343 343 345 345 346 347 346 345 344
301 294 293 291 288 290 292 293 291 285 287 301 309 313 314 313 313 311 312 314 315 315 314 312 314 316 317 319 319 321 323 325 327 327 329 331 331 329 329 329 329 329 328 328 328 329 329 329 329 330 331 332 335 336 337 338 340 340 340 341 340 340 339 339 340 340 341 340 340 340 341 343 342 342 341 343 342 342 342 342 343 344 345 345 344 344
294 293 294 293 292 289 289 286 283 283 294 303 309 310 311 313 312 309 308 312 314 315 315 312 314 316 318 319 320 323 324 326 327 328 328 330 331 329 328 328 329 329 327 327 327 328 328 329 328 328 329 331 331 333 335 335 337 336 335 337 337 337 338 338 337 337 338 338 339 339 340 340 339 339 339 339 340 339 338 338 339 340 343 343 342 344
298 295 292 290 294 288 287 284 289 295 298 300 302 304 305 302 303 302 297 303 313 316 316 314 315 318 319 319 321 323 323 324 322 322 328 328 328 329 329 328 329 328 328 329 329 328 328 328 328 328 329 328 329 329 330 332 332 331 331 330 330 331 331 331 330 331 333 334 336 338 338 338 339 339 338 337 337 337 337 338 338 339 342 337 337 338
297 295 292 290 290 290 285 286 286 287 286 292 299 306 311 311 311 309 302 299 307 315 318 317 316 317 318 319 320 320 320 318 314 317 325 327 328 327 328 329 329 329 328 327 327 327 327 327 328 329 327 326 326 327 328 330 330 329 328 327 328 327 327 327 327 329 330 330 332 333 335 336 337 337 337 336 337 338 339 339 340 339 341 337 338 338
299 297 294 290 289 289 287 282 282 284 287 296 300 305 309 311 311 307 299 294 303 312 317 319 318 319 319 318 316 316 313 310 311 317 324 327 327 328 325 326 328 328 327 327 326 325 326 326 327 327 327 326 325 325 327 328 327 326 325 325 324 325 325 325 326 327 327 328 329 331 332 333 334 334 334 334 336 337 337 339 340 340 339 339 339 338
297 294 291 291 290 290 285 285 285 288 292 300 302 305 308 311 312 302 290 290 303 315 317 317 317 317 316 314 315 314 313 310 312 318 327 328 329 328 326 325 325 325 326 327 327 326 326 327 325 324 324 324 324 325 325 326 326 326 324 324 324 323 322 323 323 325 326 327 329 330 331 332 333 334 333 334 336 338 338 338 336 336 337 337 337 337
293 294 290 288 290 293 294 286 287 290 298 303 304 307 309 313 305 293 288 296 309 315 317 316 316 316 316 315 314 310 313 317 320 324 328 327 326 325 326 328 327 327 325 325 325 327 323 324 324 323 322 322 323 323 324 324 324 323 324 322 321 321 321 322 323 324 324 325 325 325 326 327 330 332 333 334 335 336 335 335 334 334 335 336 335 334
290 291 293 292 289 288 287 288 287 287 294 302 306 309 310 305 293 290 299 306 314 315 317 318 317 316 316 316 314 314 319 324 326 326 325 324 324 324 326 326 325 325 327 326 326 323 321 320 319 319 320 320 321 322 321 321 321 320 319 319 319 320 321 322 322 323 323 323 323 321 321 325 327 329 331 332 331 329 329 330 332 335 335 336 333 331
290 288 288 289 291 290 286 285 285 284 297 308 308 306 309 299 297 301 310 314 316 316 317 318 317 316 317 315 318 320 322 323 324 324 324 323 323 323 322 321 319 321 321 320 320 322 319 317 317 317 318 319 320 321 321 321 320 320 319 317 319 321 321 321 322 324 325 324 321 322 321 321 321 323 326 327 328 327 327 329 329 331 335 334 331 329
295 289 286 289 292 285 286 286 285 291 297 305 305 299 303 305 307 312 315 312 315 315 316 315 316 318 319 318 319 320 322 322 321 322 322 321 322 322 322 321 319 317 317 318 319 320 322 319 320 320 320 321 321 320 319 320 320 321 318 316 319 323 324 321 321 324 325 327 324 320 322 321 321 318 320 323 323 325 325 326 328 329 331 333 330 327
296 293 293 290 294 292 289 289 295 300 304 306 307 305 308 313 316 316 317 315 316 315 317 316 317 319 319 319 319 320 319 321 322 322 320 320 321 320 320 319 316 315 316 317 318 321 321 319 318 318 319 319 320 320 320 320 320 320 318 318 323 322 322 323 326 324 320 319 321 324 321 320 320 321 321 321 322 324 324 323 324 323 325 329 328 326
300 300 299 301 299 302 301 303 305 305 306 309 311 313 315 316 317 319 319 316 317 317 318 318 319 319 319 320 319 318 320 320 321 320 319 320 320 320 320 316 315 315 315 316 317 319 319 318 318 318 318 318 319 320 320 319 319 319 317 321 324 319 321 323 323 323 321 321 320 317 320 319 317 316 317 319 320 322 321 321 323 322 320 323 325 325
303 303 299 298 300 292 293 303 304 305 307 309 310 311 313 314 314 317 317 317 318 319 319 320 320 319 319 319 318 318 318 320 320 319 319 319 318 318 317 315 315 315 314 315 317 319 317 317 317 317 317 316 316 317 318 317 318 319 321 321 320 321 322 325 325 324 318 315 318 317 317 316 314 313 315 314 314 314 316 315 314 318 321 320 319 323
298 304 301 299 296 293 295 304 306 308 310 312 311 311 311 312 313 314 315 317 318 320 321 321 321 320 320 319 319 318 318 320 320 318 318 318 317 317 316 315 314 314 315 315 316 316 315 315 315 316 316 315 315 317 318 317 317 317 317 318 319 319 323 326 322 317 314 315 318 321 321 324 327 318 312 313 313 311 311 311 312 312 313 313 313 318
301 307 297 298 297 300 304 305 307 310 310 311 313 313 313 312 312 312 314 316 318 319 319 319 321 320 320 319 319 319 319 320 320 319 318 318 317 316 315 315 314 315 315 314 314 316 314 314 315 314 316 314 313 314 316 316 316 316 316 317 317 319 323 324 325 321 313 315 317 320 322 315 315 312 311 310 310 309 309 310 312 312 311 312 310 312
301 297 299 300 298 295 297 300 306 303 301 306 310 313 314 314 314 314 315 315 317 316 317 317 317 319 320 320 320 320 318 318 319 319 319 319 318 316 315 315 315 315 314 315 316 315 316 316 315 314 314 312 312 314 315 314 315 316 318 317 317 320 323 322 318 313 313 314 315 317 317 314 310 311 312 309 308 308 309 310 302 304 309 308 311 303
298 299 300 298 296 297 300 304 306 306 306 307 309 312 313 316 314 314 313 313 314 315 317 317 316 317 318 319 321 320 319 318 318 318 317 316 316 316 316 316 315 314 315 316 315 314 314 314 315 314 314 313 315 316 316 314 314 314 316 315 316 318 317 317 317 315 313 317 315 318 318 315 311 309 307 307 306 308 310 307 307 297 297 304 306 298
Wind_Speed
0 0 4 5 7 8 8 9 4 1 3 3 4 5 4 4 2 3 4 2 2 3 5 7 8 10 7 9 4 3 4 6 10 10 7 8 8 8 9 10 11 11 11 10 12 12 11 11 10 9 8 9 10 10 10 10 9 8 9 8 7 6 6 6 6 5 6 5 4 3 5 5 5 5 3 3 2 2 3 2 2 2 2 2 2 1
1 2 7 9 9 9 4 2 2 2 2 5 5 7 3 2 3 2 2 4 1 1 2 1 10 8 6 3 3 1 4 9 12 11 10 10 8 7 10 11 11 10 6 9 9 10 10 10 10 10 9 9 11 9 10 10 10 9 9 9 8 6 7 7 7 7 6 5 6 6 6 4 5 4 4 4 3 3 3 2 3 2 1 2 2 1
1 6 9 9 9 3 1 3 2 4 3 2 5 5 6 3 4 5 5 5 2 2 2 0 10 8 5 4 4 4 3 2 3 6 11 11 10 7 10 11 10 7 8 10 11 11 11 12 11 10 10 9 11 11 11 10 10 9 8 8 7 7 8 7 7 6 5 3 4 5 4 5 3 2 4 5 4 3 3 3 3 3 2 2 1 1
6 6 13 10 1 1 1 3 3 2 3 6 5 6 6 7 6 3 5 7 1 1 4 3 9 5 3 4 4 6 5 3 3 3 4 10 11 10 11 12 10 8 11 12 12 12 11 12 11 9 10 10 9 8 8 9 10 9 8 8 7 7 6 6 6 6 4 5 4 4 6 4 5 5 3 3 3 3 3 3 3 2 3 2 2 2
9 12 1 3 3 3 3 3 4 6 4 2 7 4 5 10 6 1 7 8 4 4 4 6 5 0 3 5 3 5 6 4 1 3 3 6 11 12 10 11 11 11 13 13 12 11 11 11 12 12 11 10 10 9 9 9 10 8 10 9 9 7 6 5 5 6 6 6 5 4 4 4 4 4 3 4 3 3 3 3 3 4 3 3 3 3
10 15 5 7 1 3 3 4 6 8 6 2 4 7 9 11 6 9 12 11 3 1 4 8 6 9 8 7 8 6 4 5 1 1 4 9 6 7 12 13 9 10 13 14 14 13 12 12 11 9 10 11 10 10 10 10 10 9 8 8 7 6 5 5 5 6 7 6 7 6 7 6 4 5 5 6 7 5 5 6 4 3 4 4 3 3
7 5 3 7 7 4 6 6 4 7 6 4 5 5 3 7 9 12 13 7 5 5 7 2 7 4 5 9 8 6 7 8 3 2 2 3 7 7 11 11 10 11 11 12 13 12 12 11 11 11 11 11 12 10 9 9 9 9 9 8 7 7 5 5 5 6 6 6 6 7 7 6 6 7 4 3 4 6 5 4 4 4 4 4 4 3
1 4 3 5 4 4 4 7 5 9 7 4 1 11 10 10 10 9 8 1 3 5 5 1 1 3 4 10 8 8 7 8 7 6 4 3 5 8 9 10 10 12 13 12 12 13 14 13 13 13 12 11 12 11 10 9 8 9 9 8 8 6 6 5 5 6 7 7 6 6 5 6 6 7 6 5 5 4 3 4 4 4 4 4 3 3
1 6 4 5 5 4 7 8 7 10 5 2 5 13 11 9 7 7 3 3 1 3 3 6 3 0 3 3 8 9 9 10 10 8 7 5 5 7 9 11 11 13 14 13 12 13 13 14 13 12 12 11 11 11 11 10 9 9 8 8 7 7 6 5 6 6 5 6 7 7 6 5 5 5 5 4 4 4 3 4 3 3 4 3 3 3
2 7 7 4 5 6 5 8 8 14 8 4 12 15 12 10 7 6 4 3 2 1 4 8 7 3 1 5 6 6 10 13 11 11 8 6 6 7 8 8 9 11 13 14 15 14 14 14 14 13 12 11 11 11 11 9 9 9 8 8 7 7 6 6 6 6 5 5 6 6 6 7 5 3 3 4 5 4 4 5 4 4 4 3 3 3
9 2 5 0 4 6 6 1 9 10 14 13 14 15 10 7 5 2 4 2 2 1 1 3 7 2 2 4 10 13 10 10 8 6 7 5 5 5 6 7 8 10 13 13 13 14 15 14 14 12 12 12 11 10 10 10 9 9 9 8 8 7 6 6 7 6 7 5 5 6 7 7 7 5 5 5 4 4 4 5 5 4 5 3 4 4
5 4 1 3 3 4 7 10 8 18 17 10 4 8 9 5 2 3 2 1 1 2 2 5 3 1 5 3 6 5 3 11 11 13 13 11 10 8 6 6 8 10 11 13 13 13 13 11 11 11 12 12 12 10 11 10 9 9 9 9 9 6 6 6 6 6 6 6 6 5 6 7 7 7 6 7 7 6 6 6 6 5 4 4 4 3
6 2 2 6 1 13 9 16 4 7 10 8 9 3 9 0 3 1 3 2 1 2 0 3 6 2 9 3 1 7 11 9 13 11 12 11 10 8 7 8 7 9 11 12 13 12 12 12 13 12 12 11 10 11 12 11 10 10 9 9 10 8 7 8 7 7 6 6 6 6 6 6 6 6 6 6 6 6 6 6 6 5 5 5 4 4
7 3 4 2 4 2 15 11 6 2 1 10 9 5 6 3 2 2 3 1 2 2 1 1 2 3 2 5 9 8 9 11 12 13 11 11 11 10 9 7 7 9 11 12 12 13 13 13 13 13 13 12 11 12 12 12 11 10 9 10 10 10 8 7 7 7 7 6 6 5 6 6 6 6 6 6 6 6 6 6 7 7 6 6 6 5
2 2 2 2 1 4 2 14 17 11 11 11 1 5 8 8 6 4 4 4 5 3 1 2 4 4 4 3 3 13 13 12 11 11 11 9 9 9 8 7 7 8 10 11 12 13 14 14 14 13 13 12 12 13 12 11 11 11 10 10 11 9 9 9 8 6 7 6 5 4 5 5 5 6 6 6 6 6 6 5 6 6 5 6 6 6
1 4 4 3 4 2 5 7 9 11 6 1 1 4 5 5 5 4 6 5 3 3 2 2 3 1 5 2 4 2 8 10 11 10 10 10 7 6 7 8 8 9 10 11 13 13 14 14 14 13 12 13 12 13 11 12 11 11 11 12 12 12 11 10 9 8 7 6 5 4 5 5 5 4 4 4 4 4 5 6 6 6 5 6 5 4
3 1 3 6 0 1 6 7 3 13 7 5 0 2 4 2 7 5 2 2 4 2 2 2 3 2 2 1 4 3 4 8 10 12 12 12 10 9 9 9 10 9 10 11 13 13 14 12 13 13 14 13 12 12 12 12 12 13 12 12 12 11 10 10 10 9 7 6 5 6 5 5 5 5 5 6 5 5 4 4 5 5 5 4 3 4
0 7 4 6 10 5 0 5 6 6 5 5 3 7 2 4 3 5 4 1 2 2 1 2 4 1 2 3 2 8 6 7 9 11 12 12 11 12 11 10 10 10 9 11 12 13 14 14 14 12 13 14 14 14 13 13 12 12 12 13 13 12 12 11 10 9 8 8 7 6 6 6 6 6 6 5 5 4 4 3 3 3 4 5 5 4
2 4 3 1 5 5 4 6 1 6 3 7 8 5 4 1 2 2 4 1 1 2 2 2 3 3 5 4 4 8 12 10 10 10 11 13 13 13 11 11 10 10 8 8 10 11 11 12 12 13 14 13 14 14 14 14 13 12 12 13 13 14 14 13 10 9 8 8 7 6 7 7 6 5 5 4 3 3 4 4 4 3 4 4 3 4
3 1 6 3 7 6 5 4 3 6 6 3 2 3 1 5 3 3 4 3 4 1 1 2 0 4 6 6 12 11 13 11 11 10 12 12 12 12 11 11 10 9 9 8 9 10 12 13 14 14 14 14 13 12 12 13 12 13 13 12 12 11 11 11 10 9 9 9 7 7 5 5 5 5 5 4 4 4 4 4 4 4 4 5 4 4
1 1 1 7 8 3 2 2 2 2 2 2 1 1 1 0 2 4 0 2 4 5 3 2 1 5 6 4 10 10 11 11 11 12 11 13 13 9 6 6 6 7 8 8 9 10 12 13 13 13 13 13 13 12 11 12 13 13 11 12 12 12 11 11 10 10 9 8 8 7 8 7 6 6 5 5 4 4 5 4 4 5 6 3 4 4
2 2 2 5 7 3 5 3 4 1 2 1 2 2 3 0 3 2 3 1 2 5 3 3 3 5 5 1 7 8 7 6 7 9 8 9 10 10 9 7 8 7 6 7 8 7 8 10 12 11 10 10 11 11 12 12 12 11 12 11 11 11 10 11 10 9 8 7 7 8 7 7 6 5 5 5 5 5 5 5 5 5 4 5 6 5
2 2 2 3 2 7 5 7 5 4 3 3 4 4 2 2 3 2 3 4 2 0 3 1 2 2 2 5 2 6 6 5 7 9 10 11 10 7 6 7 6 10 10 8 9 9 9 10 9 3 5 10 12 12 13 12 12 12 12 11 10 11 11 10 10 9 8 7 7 7 7 6 6 5 5 5 5 5 6 5 5 5 5 6 6 5
3 4 5 4 6 6 4 3 1 8 2 5 4 3 5 4 2 4 3 4 5 2 1 1 0 1 3 6 3 1 3 7 5 7 11 8 10 12 10 7 6 4 7 9 8 8 9 9 8 7 7 7 3 5 11 12 11 11 11 11 11 12 11 10 9 8 8 7 7 6 6 6 5 6 6 6 6 6 6 6 5 5 6 7 5 5
1 2 3 4 6 8 9 10 6 9 6 3 4 5 3 4 2 3 1 1 1 5 4 7 4 1 3 5 5 6 6 7 5 4 4 11 7 11 10 8 5 6 9 11 10 10 10 11 11 8 5 4 7 9 9 5 10 11 11 10 11 11 10 10 9 9 8 8 8 7 7 7 6 7 7 7 6 7 6 6 6 5 6 6 5 6
5 0 3 5 3 5 5 4 5 8 8 7 2 7 6 7 7 2 1 0 1 2 2 1 2 1 2 4 7 6 7 5 4 3 3 2 10 11 9 8 8 8 8 10 12 13 15 13 10 8 9 8 6 9 11 13 10 5 7 9 6 4 4 5 8 9 9 9 9 8 8 8 8 9 9 9 8 8 7 7 6 6 5 5 6 6
2 1 3 5 5 5 3 4 5 3 3 3 10 7 11 7 5 2 3 4 4 1 4 4 3 4 2 3 5 6 4 4 3 4 3 3 2 2 3 5 6 7 9 11 11 10 9 13 16 14 11 11 10 12 13 14 13 14 11 8 7 8 7 4 0 4 7 8 9 8 9 9 9 8 8 7 7 6 6 6 6 6 6 5 5 6
3 3 1 5 3 5 6 5 5 4 4 4 7 11 10 12 9 6 2 2 0 3 4 1 4 5 2 2 4 5 5 4 3 4 4 2 2 3 3 3 5 5 4 4 3 4 7 8 11 14 13 11 10 10 11 14 16 13 6 5 4 3 5 6 6 1 1 4 5 5 6 7 6 6 6 6 6 6 6 6 6 6 5 4 5 7
3 2 3 2 2 1 5 3 2 3 3 1 5 10 12 10 10 7 2 4 4 5 7 1 4 7 2 3 4 5 3 6 4 4 4 3 3 3 3 3 3 3 3 4 4 3 4 5 5 6 7 8 11 11 11 12 12 13 13 11 9 7 5 6 9 7 5 4 4 3 1 1 3 3 4 4 5 5 6 6 5 5 4 4 5 6
4 1 2 2 3 2 2 1 3 4 2 3 8 6 9 8 7 5 4 7 4 2 4 6 10 10 4 4 5 4 4 4 4 5 4 5 5 4 3 2 2 2 3 3 3 3 3 2 3 5 6 9 11 11 11 11 11 10 11 11 11 9 7 7 6 6 7 7 5 2 2 2 2 3 3 4 5 5 5 4 4 3 4 4 4 4
4 1 2 2 2 0 2 2 0 3 3 3 5 9 10 7 3 7 5 8 7 9 8 9 11 9 5 6 6 6 5 6 6 7 6 4 5 5 5 4 3 2 2 3 4 4 3 3 3 4 5 6 7 9 9 9 11 12 10 7 8 9 7 6 7 6 6 6 6 6 2 1 2 3 3 3 2 1 2 3 4 4 4 4 4 4
3 1 3 2 1 1 1 2 3 1 2 3 6 9 11 8 7 8 5 5 4 5 5 5 6 5 5 6 6 7 7 7 7 6 5 4 4 4 5 5 5 5 4 4 4 4 5 5 5 5 6 7 6 4 6 8 9 11 11 10 8 8 7 7 7 6 5 5 4 4 4 2 1 2 3 3 3 2 2 2 2 3 3 3 3 2
2 3 1 1 1 1 3 3 2 0 2 4 2 2 3 1 1 2 5 8 6 3 3 3 3 2 5 5 6 7 8 8 8 7 6 7 6 5 5 6 6 5 5 5 6 6 7 7 6 7 5 5 5 6 4 6 7 7 8 8 7 6 7 6 5 6 6 7 5 3 2 3 3 3 3 2 2 1 0 2 3 2 2 1 0 0
1 5 2 1 1 2 5 5 1 3 2 3 1 1 0 2 1 3 4 5 6 5 4 5 5 7 8 9 8 8 8 6 5 5 5 4 4 6 6 6 7 8 8 9 9 9 9 9 8 8 7 6 6 5 4 4 6 6 6 7 6 4 2 4 5 4 4 4 4 4 3 2 2 2 2 1 1 2 1 2 2 2 2 2 2 2
3 3 2 1 2 2 3 3 2 1 7 3 3 1 4 8 9 9 6 7 4 3 4 5 6 9 8 9 9 8 9 8 8 9 9 7 7 7 8 8 8 8 8 8 8 8 8 8 7 8 8 8 7 8 9 7 7 8 8 8 8 7 4 1 3 4 3 3 2 2 2 1 1 0 1 0 1 2 2 3 3 3 3 3 3 3
3 5 3 2 2 1 2 2 1 4 3 4 3 2 3 3 3 5 3 6 7 4 3 4 4 4 3 10 6 5 6 6 9 9 9 7 6 7 8 8 7 7 8 6 8 9 9 9 8 7 7 5 7 7 7 7 6 8 7 6 6 5 5 5 5 4 3 4 3 3 3 3 3 3 2 2 2 3 2 1 1 1 1 0 1 1
8 4 4 1 0 2 1 2 4 4 5 2 1 1 0 1 0 2 1 2 3 3 2 4 3 5 3 8 9 5 4 6 9 8 9 8 7 7 8 8 8 9 9 8 9 10 9 9 8 7 8 7 7 7 7 6 8 9 8 8 6 7 6 6 6 5 5 5 4 5 4 4 4 4 3 3 4 3 2 3 5 4 4 5 5 5
4 2 3 4 1 3 4 2 1 1 2 6 5 5 2 2 1 3 5 1 1 2 1 3 7 4 4 6 5 2 2 7 6 5 6 7 6 6 7 9 9 8 9 9 9 9 9 8 7 6 8 9 8 6 6 7 7 8 8 7 7 7 6 6 6 5 5 5 4 4 5 5 5 5 4 4 4 2 1 0 1 2 2 3 4 5
7 6 7 5 2 2 3 3 3 4 5 6 5 4 4 1 2 4 4 2 2 4 3 2 6 6 6 4 2 1 4 3 3 0 2 4 6 6 5 5 7 7 7 7 9 9 8 7 7 6 7 8 9 5 6 7 8 9 8 7 6 6 7 6 5 5 5 5 3 4 4 4 5 5 4 4 4 3 3 2 2 1 3 3 3 2
6 3 4 5 3 1 5 2 2 4 1 1 5 3 2 0 1 3 3 3 3 4 4 3 3 4 3 2 3 6 7 6 5 3 4 3 5 5 4 4 6 7 7 8 9 8 7 6 7 7 7 7 6 4 4 5 7 8 7 6 6 7 7 5 5 4 4 4 4 4 5 4 4 4 5 6 4 4 4 3 3 4 4 4 4 2
2 2 4 5 4 2 4 1 2 4 4 4 3 4 0 1 2 4 5 3 4 6 4 3 4 3 0 0 0 4 1 2 5 4 6 5 5 6 6 5 4 6 10 6 6 7 7 7 7 7 6 5 5 5 5 6 8 8 6 6 8 7 5 4 4 5 5 5 6 6 6 5 5 5 6 5 4 3 4 4 4 4 4 4 4 4
1 2 1 3 3 4 3 3 5 4 5 4 3 1 2 2 0 5 5 2 7 6 4 4 4 2 1 1 2 2 6 7 7 6 6 6 5 5 4 5 6 5 6 4 6 6 7 8 8 7 6 4 5 4 4 6 8 7 7 7 7 4 3 4 4 5 6 6 6 6 6 6 5 5 5 4 3 5 4 2 2 4 5 4 5 6
6 3 2 2 2 2 2 2 1 0 1 1 1 2 1 2 4 4 2 1 3 6 5 3 3 2 2 1 2 6 9 8 6 4 4 6 6 5 4 5 5 5 5 5 6 6 7 8 8 7 6 5 5 4 3 6 7 6 6 7 4 2 2 3 3 4 5 5 6 6 6 6 6 5 5 5 5 5 5 4 5 5 5 6 6 6
1 2 0 2 4 3 2 3 2 3 3 2 2 3 2 3 2 3 4 2 1 3 4 3 2 3 3 5 7 7 8 9 6 4 3 4 5 4 3 4 4 3 4 5 7 8 8 9 8 7 6 5 5 4 4 5 6 5 6 5 2 3 3 4 4 4 5 5 5 6 6 5 5 5 4 4 4 5 5 5 5 5 4 5 5 5
4 2 6 4 3 2 3 3 3 4 6 4 4 2 1 0 2 1 4 4 6 3 3 4 4 4 4 6 6 7 6 4 6 4 4 3 3 4 4 3 4 4 4 5 6 6 7 9 9 8 7 5 5 4 4 4 6 5 5 3 3 4 4 4 4 4 5 5 5 5 4 5 5 4 4 4 4 5 4 4 4 5 4 4 4 4
1 2 2 6 0 2 1 2 2 2 4 7 2 2 6 3 1 2 5 3 1 3 4 6 5 5 4 5 8 4 5 5 5 4 4 3 3 2 2 3 4 4 5 5 6 6 7 8 8 8 8 5 5 5 4 4 5 6 2 2 3 3 4 4 4 4 4 4 4 3 3 4 5 5 5 5 5 4 4 3 4 5 4 4 4 2
0 1 1 4 1 3 1 3 4 2 4 10 12 6 5 4 2 0 3 3 2 3 5 3 5 6 5 5 6 7 5 5 5 3 3 3 3 2 2 3 2 3 5 5 4 5 6 7 7 7 6 6 3 4 4 4 4 3 2 3 3 3 3 4 4 4 4 4 3 3 3 4 3 4 5 5 5 5 5 5 5 4 3 4 4 3
1 2 6 1 3 1 2 1 2 1 6 9 10 9 3 8 6 3 3 4 4 3 4 4 6 6 4 6 6 8 7 6 6 5 4 3 3 3 3 3 4 4 3 4 4 5 6 6 6 5 5 5 3 3 4 4 3 3 3 3 3 4 4 3 3 3 4 3 3 3 4 4 6 6 5 5 5 5 5 5 4 5 5 4 4 2
4 3 3 3 3 1 2 2 2 7 9 8 1 10 3 6 8 5 4 5 7 8 7 7 5 3 4 6 5 9 8 5 6 7 6 3 3 3 3 4 4 4 4 4 3 4 6 5 5 4 4 3 2 3 4 3 2 2 3 3 3 4 5 4 4 4 4 3 4 4 3 4 3 3 5 4 4 4 4 3 4 4 3 3 2 3
3 3 2 5 6 3 6 6 7 8 3 4 5 5 1 3 9 8 7 7 7 8 8 10 8 7 7 4 6 9 9 6 4 6 6 5 5 4 4 4 4 4 3 2 3 4 4 4 5 4 4 2 1 3 3 3 2 1 2 3 3 4 5 4 4 4 4 3 3 3 3 3 3 3 3 4 4 3 4 6 5 4 3 3 6 7
4 7 6 6 7 7 7 7 5 5 6 4 7 4 1 2 8 11 8 5 4 5 7 10 9 9 8 7 5 8 9 8 5 6 6 4 3 4 5 7 6 4 4 4 5 3 4 3 3 4 3 1 1 2 2 2 1 1 1 3 3 4 4 4 3 3 2 1 2 1 1 2 3 2 3 3 2 2 3 2 3 6 7 5 6 6
Wind_Direction
146 183 213 210 213 214 207 205 194 155 167 89 68 83 118 135 174 152 145 103 317 144 146 177 163 156 173 175 94 95 344 266 181 181 180 181 175 162 163 169 173 170 176 174 172 168 167 163 160 158 161 161 160 163 166 169 177 180 173 166 174 180 175 175 173 152 155 164 166 150 174 185 185 188 191 190 212 186 183 152 141 151 143 119 115 115
70 269 252 223 224 216 211 118 184 244 140 157 125 122 119 169 179 137 145 160 44 31 72 118 146 142 144 101 84 113 318 232 191 181 183 179 177 166 163 171 174 173 164 161 163 168 162 160 161 158 162 166 164 171 169 173 177 175 167 169 173 169 174 179 178 164 163 167 173 166 182 172 172 175 171 197 218 200 180 162 156 166 165 134 151 151
9 224 249 235 228 232 102 193 204 177 142 123 143 137 122 171 104 85 116 152 161 51 146 154 147 126 100 99 127 201 267 249 282 203 181 175 173 170 165 171 167 155 164 167 168 167 165 162 164 163 166 173 173 169 172 173 168 166 164 168 167 173 172 176 171 156 164 167 165 157 175 166 162 204 191 181 183 183 173 177 174 162 172 158 185 199
297 278 246 253 256 207 251 204 220 109 120 128 121 140 187 163 166 156 167 155 130 219 150 208 150 121 88 70 152 213 255 271 261 286 224 177 173 174 174 169 164 165 165 169 169 170 167 163 166 168 168 170 170 171 171 170 168 165 164 167 167 173 170 166 169 158 156 151 157 156 156 156 157 170 172 165 153 161 141 183 182 179 177 186 190 207
226 247 68 42 161 182 239 231 151 146 188 239 175 146 116 180 223 107 160 140 118 44 120 122 113 131 130 141 177 228 259 272 296 326 239 223 180 178 170 171 164 167 168 170 171 169 167 165 169 174 172 166 169 173 175 174 170 171 171 171 168 168 170 164 156 145 138 118 104 107 97 104 80 70 112 134 170 183 184 169 182 201 193 194 197 202
274 266 247 281 223 165 180 228 198 157 198 182 237 194 193 185 132 111 136 136 126 121 225 162 158 201 177 178 184 200 239 248 262 334 239 198 205 182 170 177 169 171 169 169 173 172 171 171 169 168 167 169 170 174 177 175 174 169 172 169 166 165 165 157 154 150 141 143 141 141 139 141 142 145 151 172 180 186 186 195 195 192 193 196 206 205
229 272 158 222 224 172 180 209 211 167 168 145 248 179 110 135 124 138 148 144 162 188 189 268 201 180 157 191 196 209 208 238 244 254 277 213 193 194 182 176 172 171 172 173 172 169 168 172 168 171 173 173 172 175 171 173 174 171 170 172 170 169 169 156 158 157 144 144 155 159 163 160 165 167 200 195 188 178 194 186 184 201 198 200 201 216
207 279 236 224 199 164 147 224 217 169 135 205 259 115 117 121 137 155 151 101 71 70 88 128 16 162 185 210 193 197 212 222 240 246 244 238 207 202 190 179 175 173 168 174 175 175 173 171 173 177 178 174 175 168 167 172 171 171 173 172 175 173 168 165 159 163 159 157 166 162 164 165 167 177 185 183 191 186 172 177 202 201 209 207 210 207
211 291 233 228 194 152 193 208 202 163 139 215 114 111 108 116 123 131 58 63 74 112 180 206 193 220 247 184 166 182 210 216 228 225 228 231 223 207 202 184 179 176 170 171 175 178 176 175 179 178 178 178 167 165 170 172 173 172 171 171 171 175 170 166 168 164 173 164 170 170 165 170 188 181 180 174 174 173 184 185 206 211 220 219 227 215
270 211 248 200 152 202 220 219 141 134 106 103 109 89 88 80 73 81 97 64 24 8 227 209 190 203 251 151 177 194 207 210 209 215 221 221 218 202 204 194 182 182 173 174 176 178 180 180 180 181 177 170 172 172 169 169 166 169 167 169 170 178 176 169 173 170 172 176 166 169 177 176 183 179 157 155 169 180 183 195 202 213 223 229 228 232
257 269 163 116 213 208 195 149 143 124 115 129 99 95 84 70 79 64 62 88 67 268 214 260 205 217 241 197 189 189 204 196 191 216 221 210 226 215 203 194 178 188 179 177 179 180 181 182 180 174 175 177 171 169 168 166 170 169 170 170 175 181 174 173 177 172 175 176 178 179 182 183 179 179 165 162 180 176 184 196 206 205 218 214 213 209
316 292 141 230 196 81 106 76 95 119 122 120 103 127 111 44 29 40 6 47 164 255 170 190 231 33 209 209 204 201 145 200 195 203 205 203 204 205 195 197 187 184 186 180 178 182 181 178 180 176 177 174 174 169 171 171 170 173 174 172 174 176 176 180 181 177 176 174 186 188 183 186 185 176 175 179 182 184 187 194 199 205 195 218 217 205
321 242 236 336 311 119 93 97 60 110 129 119 125 91 93 77 38 354 11 345 249 209 264 152 155 63 251 234 218 180 208 200 204 205 202 200 200 198 196 194 189 181 184 182 182 180 180 179 178 182 180 174 172 176 175 173 174 174 175 175 174 183 180 184 183 183 180 178 185 185 189 191 183 183 181 183 183 184 185 188 194 184 197 202 208 215
281 299 354 357 60 96 127 112 138 107 218 143 150 149 90 94 60 168 250 231 320 304 87 95 158 242 323 281 222 227 219 210 204 204 201 197 194 193 194 191 184 180 181 185 182 181 182 182 182 182 179 178 180 180 177 174 175 175 177 178 181 184 183 184 186 186 182 189 189 185 187 188 179 186 183 187 187 191 189 184 189 189 192 193 201 201
46 3 316 7 16 311 178 153 167 162 174 186 191 157 169 152 158 174 177 188 211 210 115 84 146 219 156 249 217 205 211 210 206 209 203 196 195 192 189 182 177 180 177 183 185 185 186 185 183 182 181 181 181 181 178 178 178 175 177 180 184 183 186 184 189 187 188 191 191 187 190 188 182 184 187 193 193 187 187 195 190 194 191 195 205 199
233 230 259 265 245 164 212 189 150 132 134 257 195 71 103 223 145 138 199 146 149 125 139 179 213 202 192 273 334 288 229 201 188 202 205 206 193 177 180 181 185 184 177 179 187 189 189 187 185 183 184 184 183 181 179 181 179 180 181 182 185 185 186 187 186 191 191 191 186 183 189 199 192 191 187 194 197 197 195 188 191 196 195 204 202 214
10 310 290 316 245 196 195 146 210 147 167 215 79 210 219 222 114 108 42 43 101 60 239 172 294 301 276 295 239 267 226 220 195 198 199 205 199 181 188 188 189 186 177 178 185 188 189 190 188 186 185 185 184 182 183 183 182 184 181 182 185 186 185 187 187 189 189 184 184 193 193 194 198 195 191 195 200 198 201 193 194 192 204 203 204 211
154 263 298 35 0 317 250 162 161 198 135 107 183 238 242 70 99 114 140 320 66 176 248 142 233 222 128 289 216 205 207 217 208 207 203 202 197 194 192 188 189 188 184 181 183 185 187 188 189 189 189 186 185 184 185 186 184 186 183 183 184 183 185 190 186 185 185 185 191 191 194 198 197 198 201 200 200 195 190 204 204 201 201 211 211 211
129 356 294 87 328 311 344 94 53 240 281 155 201 207 108 300 294 8 96 97 170 264 245 272 243 250 202 234 167 205 209 208 207 206 204 203 199 200 193 189 190 189 175 171 178 180 186 190 192 189 190 191 190 186 186 185 183 186 186 186 184 185 188 187 186 184 185 185 188 190 196 193 197 200 202 205 203 188 192 206 206 212 220 223 219 215
53 87 307 293 8 311 8 73 162 304 300 323 69 114 132 111 169 128 215 162 115 211 78 290 125 260 208 212 183 190 203 207 197 198 207 208 208 197 197 190 184 186 184 172 173 180 184 191 193 191 188 189 191 190 188 184 183 186 187 184 188 190 187 184 183 180 184 189 184 187 190 199 197 196 196 197 192 199 208 211 207 217 226 228 219 221
64 105 279 295 319 37 46 345 126 188 276 328 22 249 217 289 226 116 121 145 165 165 183 176 307 272 258 199 168 185 190 194 188 195 199 197 199 191 176 179 183 185 182 174 175 181 185 189 193 195 192 191 190 188 183 183 186 188 186 185 185 183 184 187 187 180 186 182 187 180 188 197 197 202 200 197 192 201 213 214 211 212 223 219 222 215
38 29 3 316 359 3 251 263 358 250 213 233 151 32 234 316 144 153 252 346 104 106 196 137 234 266 289 290 169 169 194 177 175 178 181 169 150 151 161 157 154 158 166 167 177 175 181 188 192 194 195 194 187 186 186 187 186 185 186 185 182 182 184 186 187 184 182 182 185 186 189 196 198 203 200 203 199 204 210 213 213 215 213 218 229 207
137 140 85 332 248 267 279 307 284 26 114 142 113 2 319 193 102 92 154 235 68 53 120 154 140 266 276 314 231 169 179 166 164 156 159 161 160 160 184 175 171 166 162 156 122 100 90 64 26 321 220 197 191 191 189 184 185 186 186 181 180 179 187 187 186 183 177 180 183 190 189 188 196 201 206 210 211 212 213 213 217 211 209 219 225 214
51 43 0 291 312 296 309 261 316 31 30 16 5 20 18 355 294 178 183 198 147 171 56 332 202 245 316 350 326 121 140 140 158 167 153 154 158 182 186 177 171 130 129 113 124 130 126 117 103 84 43 5 326 230 194 187 188 185 184 182 179 184 185 184 183 177 175 176 185 186 181 189 193 197 206 214 218 218 221 217 217 208 212 220 218 215
56 311 97 4 359 344 347 350 356 360 38 67 320 316 325 299 296 250 90 63 104 219 175 138 224 257 336 359 15 59 94 109 98 12 143 147 177 188 193 181 154 145 143 137 140 145 146 145 139 128 126 114 81 41 355 270 198 185 186 182 182 185 182 182 177 173 177 178 180 182 184 193 194 198 204 213 214 221 222 223 220 207 211 214 218 219
81 270 77 81 70 37 2 348 319 326 319 312 291 319 346 359 340 2 199 60 117 279 108 175 218 297 3 34 39 43 62 54 45 68 36 164 167 179 182 167 157 154 161 159 156 156 159 162 157 151 156 154 123 94 71 31 338 258 196 183 173 158 161 180 173 174 175 178 179 182 189 196 198 203 206 208 211 216 221 222 223 218 215 210 217 222
119 55 94 144 145 168 213 231 252 239 317 5 321 336 344 343 338 106 100 112 201 229 199 237 147 131 78 49 53 31 42 74 74 74 95 118 95 98 136 155 162 160 168 171 176 179 165 159 167 171 163 161 139 128 107 92 74 53 28 38 84 112 105 59 155 176 174 178 183 185 195 200 204 209 212 211 212 215 223 229 230 226 225 216 219 223
69 64 226 127 116 186 190 204 272 25 15 328 352 348 346 2 341 46 70 181 202 92 277 240 175 116 165 118 111 108 108 98 100 119 126 116 80 96 99 107 107 113 124 130 147 176 184 181 172 168 162 149 138 126 122 120 123 122 128 96 65 95 113 106 92 58 141 169 188 198 206 206 208 213 215 213 210 211 217 224 230 230 229 212 216 220
129 123 219 106 108 265 198 220 43 47 44 304 24 14 2 352 357 44 332 271 188 164 217 282 110 101 101 122 138 143 151 137 135 140 124 107 85 89 100 122 122 110 104 132 156 163 163 165 162 152 144 139 133 129 131 133 135 143 155 157 156 153 143 143 143 144 142 142 150 147 103 303 225 208 218 217 212 215 220 223 227 222 209 204 209 214
87 1 193 125 162 157 170 133 63 57 2 14 19 21 10 3 349 353 37 1 92 70 65 81 85 88 96 106 97 100 110 98 94 100 108 127 134 130 127 120 106 108 113 115 129 156 161 149 154 156 144 144 141 138 139 141 146 150 152 160 164 156 148 149 152 146 152 161 164 145 151 160 174 167 188 206 212 216 214 218 221 210 201 197 185 178
99 288 20 134 87 251 275 291 64 102 81 42 350 11 18 3 356 354 17 16 44 71 69 80 78 73 55 80 82 86 87 95 96 115 118 97 113 118 124 141 136 110 101 109 125 127 127 126 120 118 123 127 138 137 133 137 141 141 136 137 147 149 151 155 148 158 165 163 152 163 149 136 171 136 138 132 133 126 154 203 204 205 213 200 190 189
67 233 40 71 78 309 270 296 283 229 25 62 13 4 1 7 18 358 14 344 5 33 64 64 60 71 102 91 85 85 95 102 91 79 83 65 75 81 108 101 94 113 133 136 124 116 115 114 123 122 124 116 121 140 131 124 129 132 141 146 153 155 153 149 147 145 142 131 132 149 144 148 176 151 147 139 137 141 134 109 159 193 208 202 188 200
146 116 80 64 71 275 274 35 12 46 6 334 334 337 328 336 167 289 0 12 9 307 32 29 347 347 91 94 87 74 74 55 51 45 44 53 55 76 91 94 97 91 123 129 128 117 97 83 85 88 85 100 118 122 145 140 127 118 121 131 135 137 143 135 127 136 145 146 151 153 137 156 168 189 184 171 153 179 90 103 109 107 107 90 7 62
93 101 146 148 125 252 296 347 10 68 254 240 236 132 95 98 167 94 19 15 359 22 88 29 5 15 51 62 57 56 52 51 56 49 52 48 66 83 94 96 81 69 65 67 82 102 107 102 97 96 96 92 88 82 94 107 112 99 94 94 80 57 56 131 133 135 133 135 145 151 176 177 199 210 221 188 126 115 115 96 102 112 104 109 68 51
102 83 121 141 105 239 331 15 42 257 233 242 271 159 117 113 99 75 55 23 32 37 79 89 359 17 54 57 49 44 64 61 51 50 53 65 80 76 83 90 95 89 78 73 63 56 61 77 81 83 83 82 92 106 104 98 109 118 120 128 125 123 103 59 110 111 121 116 92 83 95 132 153 262 331 350 66 81 103 132 144 152 159 149 153 156
154 120 154 43 92 33 47 39 139 244 237 285 283 286 259 180 122 118 48 18 350 19 97 104 106 291 125 102 79 66 56 61 63 45 47 44 68 105 107 101 92 83 76 65 77 72 75 72 76 82 83 81 94 108 108 107 93 88 78 71 84 87 102 115 95 89 85 72 57 55 55 77 87 79 71 67 61 62 46 14 7 338 290 134 100 108
131 105 100 88 24 185 167 140 223 306 322 321 357 330 146 163 143 119 144 268 307 327 35 140 181 212 138 114 112 88 332 64 61 46 28 41 43 57 79 80 79 79 83 72 66 71 69 75 77 83 85 75 57 59 66 83 93 95 92 86 78 77 60 60 68 67 68 63 54 58 54 54 65 65 56 53 84 70 33 343 310 337 357 17 17 25
108 142 229 124 266 120 131 56 354 20 277 269 240 271 268 176 118 150 108 292 270 250 144 172 178 171 155 145 116 151 210 90 54 24 30 30 36 51 74 87 80 80 83 86 81 76 77 79 80 73 86 87 78 77 87 86 91 96 96 98 98 97 97 88 78 77 79 68 57 57 56 58 62 63 53 54 65 99 100 125 359 1 33 44 38 46
33 78 119 123 144 73 56 126 198 169 243 207 230 239 264 20 126 144 65 346 247 203 200 203 160 160 160 152 186 176 80 92 148 149 69 45 35 25 46 55 73 77 82 90 98 95 90 87 88 89 84 88 90 85 95 106 107 101 97 99 105 107 102 98 98 90 86 81 75 68 65 66 73 76 78 69 51 53 55 31 51 44 97 134 169 163
59 3 51 52 84 171 136 112 238 206 230 265 229 259 248 29 222 62 46 283 233 193 188 178 209 200 198 159 135 98 117 135 164 153 109 82 55 39 38 52 83 82 65 75 77 82 84 83 82 71 66 71 73 78 78 88 95 98 105 107 107 95 91 87 86 90 92 90 81 74 63 59 65 65 70 79 71 61 57 45 40 26 41 41 26 44
33 32 48 164 153 170 144 235 325 302 276 244 232 238 229 183 65 87 181 235 189 169 184 184 222 219 156 217 134 112 227 162 126 105 95 92 76 68 70 56 14 79 96 75 82 93 90 83 77 75 73 69 73 72 73 85 86 82 81 87 83 78 76 78 81 77 78 77 70 59 54 46 46 52 52 55 67 58 52 40 42 38 41 57 61 57
359 94 358 82 102 160 184 130 218 237 240 213 245 159 182 96 211 205 237 175 141 148 189 191 214 229 144 201 283 123 118 99 97 94 98 95 102 103 90 86 81 44 61 86 95 87 88 86 82 80 68 57 63 63 69 85 86 83 81 77 79 77 70 68 71 76 72 66 63 61 53 50 48 51 50 49 68 71 60 40 53 70 87 75 76 71
200 116 192 152 158 73 45 77 20 220 294 142 121 72 82 118 230 213 144 47 120 151 166 197 200 220 156 108 115 118 111 102 97 94 103 117 118 118 113 109 108 111 109 99 87 85 95 94 89 85 83 67 55 40 46 79 86 87 88 89 94 94 85 76 71 75 77 68 57 49 47 40 37 35 36 42 38 56 55 41 55 59 76 84 64 58
200 91 256 270 181 146 135 153 192 215 235 259 142 191 229 197 194 183 114 109 106 140 180 160 220 198 165 133 131 118 111 109 95 95 94 94 102 102 101 103 109 115 100 93 102 110 101 94 90 86 75 69 62 55 46 65 78 75 74 59 36 74 69 60 48 51 59 59 59 57 48 45 42 42 43 44 51 50 48 40 46 50 55 93 99 100
214 161 177 166 221 130 190 216 247 248 234 254 186 212 168 270 127 147 107 145 139 159 156 147 164 147 140 132 118 117 111 108 120 124 126 128 118 120 120 114 111 103 91 90 89 88 90 99 100 93 82 78 79 69 67 65 81 71 60 6 48 66 66 55 54 53 49 44 43 54 61 54 44 43 44 40 46 58 48 48 43 61 27 58 92 105
271 190 177 86 169 229 194 199 246 340 7 357 326 145 129 102 51 137 124 105 60 116 148 149 145 127 117 117 115 105 125 128 116 113 111 119 117 92 72 68 67 79 87 90 82 84 94 92 91 93 91 73 78 76 66 59 69 72 36 18 54 58 71 74 67 60 51 45 41 33 50 65 49 41 38 36 37 48 48 58 63 70 42 51 57 78
289 115 57 109 165 69 125 330 16 33 23 14 350 345 75 76 72 118 109 94 87 90 94 103 126 123 124 123 132 143 141 135 124 117 120 125 129 133 110 95 79 96 108 98 101 101 92 96 94 94 95 88 65 82 72 70 60 77 70 63 59 64 63 59 54 53 48 37 31 26 46 85 83 58 42 42 39 40 35 31 34 55 65 62 72 69
283 151 81 97 90 115 217 160 33 312 83 47 9 323 53 80 60 26 71 101 96 71 90 102 105 98 112 117 141 142 147 142 137 139 144 154 158 139 127 127 117 90 73 97 92 89 83 83 89 85 84 82 60 68 74 74 67 51 54 49 46 46 43 29 46 75 52 39 43 51 44 68 98 81 60 41 39 32 25 25 30 51 44 28 11 29
174 98 144 170 97 356 65 62 66 62 59 87 93 292 288 115 106 69 64 84 92 87 77 58 51 80 99 124 120 122 130 151 149 151 152 153 146 138 138 144 130 122 128 111 103 108 114 113 101 103 99 90 52 65 63 58 43 36 59 50 48 55 48 39 40 61 46 43 50 46 66 68 73 89 94 85 64 58 49 14 2 23 45 66 77 353
91 103 158 92 104 166 183 192 167 117 156 164 201 220 319 75 93 86 72 63 78 90 87 80 59 53 58 52 109 116 121 119 125 138 151 164 167 148 133 125 120 118 101 83 84 93 101 105 119 118 113 113 55 76 73 60 39 11 27 60 60 59 59 52 51 53 51 52 68 56 67 72 71 80 89 98 101 87 73 63 71 42 42 11 30 38
143 188 151 144 161 204 227 194 187 132 127 160 168 192 156 75 91 89 88 89 73 86 97 96 84 59 53 38 32 102 110 114 119 114 113 132 146 137 143 136 128 127 127 117 104 89 101 111 113 107 110 132 103 99 94 74 8 6 19 51 67 74 74 68 57 48 38 60 78 112 96 93 88 63 69 64 68 66 76 44 33 59 53 45 31 27